Regional Weather Roundup
Issued by NWS

Home | Current Version | Previous Version | Graphics & Text | Print | Product List | Glossary Off
Versions: 1 2 3 4 5 6 7 8 9 10 11 12 13 14 15 16 17 18 19 20 21 22 23 24 25 26 27 28 29 30 31 32 33 34 35 36 37 38 39 40 41 42 43 44 45 46 47 48 49 50

000
ASUS43 KDTX 230801
RWRMI
MICHIGAN HOURLY REGIONAL WEATHER ROUNDUP
NATIONAL WEATHER SERVICE DETROIT/PONTIAC MI
400 AM EDT FRI JUN 23 2017

NOTE: "FAIR" INDICATES FEW OR NO CLOUDS BELOW 12,000 FEET WITH NO
SIGNIFICANT WEATHER AND/OR OBSTRUCTION TO VISIBILITY.

MIZ047>049-052>055-059>063-066>070-074>076-081>083-230900-
SOUTHEAST LOWER MICHIGAN

CITY           SKY/WX    TMP DP  RH WIND       PRES   REMARKS
ADRIAN         CLOUDY    73  67  81 SW13      29.71F
ALMA           CLOUDY    67  66  96 E9        29.66F
ANN ARBOR      CLOUDY    72  69  90 S8        29.69F
BAD AXE        DRIZZLE   64  64 100 CALM      29.66F
CARO           HVY RAIN  66  66  99 S6        29.68S
DETROIT CITY   MOCLDY    73  67  81 SW10      29.69F
DETROIT        CLOUDY    73  68  84 S8        29.70F
FLINT          CLOUDY    71  68  90 SW8       29.67F
GROSSE ILE     MOCLDY    73  68  82 SW12      29.68F
HILLSDALE      CLOUDY    72  64  78 SW6       29.71S
HOWELL         CLOUDY    71  66  83 SW6       29.69F

CITY           SKY/WX    TMP DP  RH WIND       PRES   REMARKS
JACKSON        CLOUDY    72  67  84 SW6       29.69F
LAMBERTVILLE   MOCLDY    73  67  80 SW6       29.70F
LANSING        CLOUDY    74  67  78 SW9       29.68F
LAPEER         LGT RAIN  71  69  94 SW12G18   29.67F
MASON          CLOUDY    72  68  88 SW5       29.69S
MONROE         CLOUDY    74  67  79 S10       29.68F
MT. CLEMENS    PTCLDY    73  70  91 SW10      29.68F
PONTIAC        CLOUDY    71  69  93 S10       29.68F
PORT HOPE        N/A     66  65  96 SW5       29.62F
PORT HURON     CLOUDY    72  66  83 SW7       29.67F
TRI CITIES     LGT RAIN  66  66 100 NW6       29.69F
MIDLAND        HVY RAIN  65  64  96 SE7       29.66S
TROY           CLOUDY    73  67  83 S7        29.70F
SAGINAW HB     RAIN      64  63  94 SE6       29.67F
$$
MIZ043>046-050>051-056>058-064>065-071>073-077>080-230900-
SOUTHWEST LOWER MICHIGAN

CITY           SKY/WX    TMP DP  RH WIND       PRES   REMARKS
BATTLE CREEK   CLOUDY    73  69  87 SW14      29.69F
BENTON HARBOR  CLOUDY    75  69  81 SW10G20   29.66F
BIG RAPIDS     HVY RAIN  65  63  94 NE3       29.64F
COLDWATER      CLOUDY    71  69  95 SW8G16    29.70S
FREMONT        HVY RAIN  68  68 100 NW8       29.63F
HOLLAND        CLOUDY    74  69  85 SW21G28   29.64F
GRAND RAPIDS   CLOUDY    73  70  90 SW13      29.64F
IONIA          CLOUDY    73  68  86 S10       29.64F
KALAMAZOO      CLOUDY    73  67  81 SW10      29.68F
LUDINGTON      RAIN      65  65 100 NW8       29.63F
MARSHALL       CLOUDY    72  70  93 SW8       29.68F
MOUNT PLEASANT HVY RAIN  65  64  97 CALM      29.66F
MUSKEGON       TSTM      68  67  96 W9G17     29.64S FOG
SOUTH HAVEN    CLOUDY    75  71  87 SW15G21   29.66F
$$
MIZ016>042-230900-
NORTHERN LOWER MICHIGAN

CITY           SKY/WX    TMP DP  RH WIND       PRES   REMARKS
ALPENA         LGT RAIN  66  66 100 S5        29.62F
BEAVER ISLAND  CLOUDY    63  63 100 W7        29.63F FOG
BELLAIRE       CLOUDY    65  64  94 CALM      29.63R
CADILLAC       DRIZZLE   64  63  97 CALM      29.66S
CHARLEVOIX     CLOUDY    65  65 100 CALM      29.65F
FRANKFORT      LGT RAIN N/A N/A N/A SW3       29.65S
GAYLORD        CLOUDY    65  62  90 CALM      29.63F
GRAYLING       RAIN      64  63  98 CALM      29.64F
HARBOR SPRINGS MOCLDY    63  63 100 CALM      29.62F FOG
HOUGHTON LAKE  LGT RAIN  64  63  96 S6        29.66F
MANISTEE       RAIN      64  64 100 CALM      29.65R FOG
OSCODA         RAIN      67  66  95 CALM      29.62F
PELLSTON       CLOUDY    63  61  93 N3        29.62F
ROGERS CITY    CLOUDY    65  64  96 W3        29.63S
TRAVERSE CITY  RAIN      66  64  93 SW5       29.63R FOG
$$
MIZ007>008-015-230900-
EASTERN UPPER MICHIGAN

CITY           SKY/WX    TMP DP  RH WIND       PRES   REMARKS
KINROSS        FOG       61  61 100 SW3       29.63S VSB 1/2
MACKINAC ISLAN FOG       62  62 100 W5        29.62F VSB 1/4
NEWBERRY       FOG       60  59  97 SW3       29.62S VSB 1
S. S. MARIE    FOG       63  62  97 W3        29.61F VSB 1/4
MUNISING         N/A     62  61  96 VRB6      29.62S
$$
MIZ004>006-011>014-085-230900-
CENTRAL UPPER MICHIGAN

CITY           SKY/WX    TMP DP  RH WIND       PRES   REMARKS
MANISTIQUE     CLOUDY    62  58  90 CALM      29.62S
ESCANABA       CLOUDY    62  61  96 W5        29.63F
MENOMINEE      MOCLDY    65  64  97 CALM      29.65S
SAWYER-GWINN   CLOUDY    58  56  91 W6        29.64S
$$
MIZ001>003-009>011-084-230900-
WESTERN UPPER MICHIGAN

CITY           SKY/WX    TMP DP  RH WIND       PRES   REMARKS
IRON MOUNTAIN  MOCLDY    59  56  89 NW3       29.65S
HOUGHTON       CLEAR     52  49  89 W6        29.61F
COPPER HARBOR    N/A     59  52  77 W7        29.57F
IRONWOOD       CLEAR     53  51  93 CALM      29.66F
$$

ABBREVIATIONS USED IN REMARKS
   TC - TEMPERATURE IN CELSIUS
  WCI - WIND CHILL INDEX
   HX - HEAT INDEX
  VSB - VISIBILITY





USA.gov is the U.S. government's official web portal to all federal, state and local government web resources and services.